Pottsboro, TX

1:28 AM CST on December 06, 2016 (GMT -0600)
Sherman - Denison

Weather History for KGYI - February, 2013

Change the Weather History Date:

Tuesday, February 12, 2013

  Actual Average (KDFW) Record (KDFW)
Temperature  
Mean Temperature 40 °F 49 °F  
Max Temperature 42 °F 60 °F 84 °F (1962)
Min Temperature 37 °F 39 °F -8 °F (1899)
Degree Days  
Heating Degree Days 26 16  
Month to date heating degree days 204  
Since 1 July heating degree days 1709  
Cooling Degree Days 0 0  
Month to date cooling degree days 0  
Year to date cooling degree days 2  
Moisture  
Dew Point 40 °F    
Average Humidity 92    
Maximum Humidity 100    
Minimum Humidity 70    
Precipitation  
Precipitation 0.54 in 0.11 in 2.90 in (1997)
Month to date precipitation 1.06  
Year to date precipitation 3.19  
Snow  
Snow 0.00 in 0.00 in 1.50 in (1901)
Month to date snowfall 0.4  
Since 1 July snowfall 0.9  
Snow Depth -    
Sea Level Pressure  
Sea Level Pressure 29.97 in    
Wind  
Wind Speed 8 mph (NE)    
Max Wind Speed 20 mph    
Max Gust Speed 25 mph    
Visibility 7 miles    
Events Rain , Thunderstorm    
T = Trace of Precipitation, MM = Missing Value Source: NWS Daily Summary

Daily Weather History Graph

Daily Weather History Graph

Search for Another Location

Airport or City:

Trip Planner

Search our weather history database for the weather conditions in past years. The results will help you decide how hot, cold, wet, or windy it might be!

Date:

Astronomy

Feb. 12, 2013 Rise Set
Actual Time 7:13 AM CST 6:08 PM CST
Civil Twilight 6:48 AM CST 6:34 PM CST
Nautical Twilight 6:18 AM CST 7:03 PM CST
Astronomical Twilight 5:49 AM CST 7:32 PM CST
Moon 8:21 AM CST (2/12) 8:58 PM CST (2/12)
Length of Visible Light 11h 46m
Length of Day
10h 54m
Waxing Crescent, 7% of the Moon is Illuminated
Feb 12
Waxing Crescent
Feb 17
First Quarter
Feb 25
Full
Mar 4
Last Quarter
Mar 11
New

Hourly Weather History & Observations

Time (CST) Temp. Windchill Dew Point Humidity Pressure Visibility Wind Dir Wind Speed Gust Speed Precip Events Conditions
12:15 AM 42.8 °F 40.1 °F 33.8 °F 70% 30.07 in 10.0 mi East 4.6 mph - N/A   Clear
12:35 AM 42.8 °F 39.3 °F 33.8 °F 70% 30.05 in 10.0 mi East 5.8 mph - N/A   Clear
12:55 AM 41.0 °F 36.4 °F 33.8 °F 76% 30.03 in 10.0 mi ENE 6.9 mph - N/A   Clear
1:15 AM 39.2 °F 34.2 °F 33.8 °F 81% 30.02 in 10.0 mi NE 6.9 mph - N/A   Clear
1:35 AM 39.2 °F 35.9 °F 33.8 °F 81% 30.02 in 10.0 mi NNE 4.6 mph - N/A   Clear
1:55 AM 39.2 °F - 33.8 °F 81% 30.05 in 10.0 mi Calm Calm - N/A   Clear
2:15 AM 39.2 °F 35.0 °F 33.8 °F 81% 30.02 in 10.0 mi NE 5.8 mph - N/A   Scattered Clouds
2:35 AM 41.0 °F 39.0 °F 35.6 °F 81% 30.10 in 10.0 mi WSW 3.5 mph - N/A   Mostly Cloudy
2:55 AM 41.0 °F 37.1 °F 35.6 °F 81% 30.04 in 10.0 mi ENE 5.8 mph - N/A   Scattered Clouds
3:15 AM 41.0 °F 35.8 °F 35.6 °F 81% 30.00 in 10.0 mi East 8.1 mph - N/A   Scattered Clouds
3:35 AM 42.8 °F 39.3 °F 35.6 °F 76% 30.02 in 10.0 mi ENE 5.8 mph - N/A   Overcast
3:55 AM 42.8 °F 40.1 °F 35.6 °F 76% 30.00 in 10.0 mi ENE 4.6 mph - N/A   Overcast
4:15 AM 42.8 °F - 35.6 °F 76% 30.04 in 10.0 mi Calm Calm - N/A Thunderstorm Thunderstorm
4:35 AM 42.8 °F 36.6 °F 35.6 °F 76% 29.97 in 10.0 mi ENE 11.5 mph - N/A Rain , Thunderstorm Rain
4:55 AM 41.0 °F 36.4 °F 37.4 °F 87% 29.99 in 10.0 mi North 6.9 mph - 0.03 in Rain Light Rain
5:15 AM 41.0 °F 35.8 °F 37.4 °F 87% 30.00 in 10.0 mi North 8.1 mph - N/A Thunderstorm Overcast
5:35 AM 42.8 °F 38.0 °F 37.4 °F 81% 29.98 in 10.0 mi NNE 8.1 mph 13.8 mph N/A Rain Light Rain
5:55 AM 41.0 °F 35.2 °F 37.4 °F 87% 29.95 in 10.0 mi ENE 9.2 mph - 0.03 in Rain Light Rain
6:15 AM 41.0 °F 33.9 °F 39.2 °F 93% 29.92 in 10.0 mi ENE 12.7 mph - 0.01 in   Light Drizzle
6:35 AM 42.8 °F 36.6 °F 39.2 °F 87% 29.91 in 10.0 mi ENE 11.5 mph 20.7 mph 0.01 in Rain Rain
6:55 AM 42.8 °F 34.3 °F 41.0 °F 93% 30.00 in 4.0 mi NW 19.6 mph - 0.10 in Rain Heavy Rain
7:15 AM 42.8 °F 36.2 °F 41.0 °F 93% 29.95 in 5.0 mi NE 12.7 mph 17.3 mph 0.07 in Rain , Thunderstorm Light Thunderstorms and Rain
7:35 AM 41.0 °F 32.5 °F 41.0 °F 100% 29.95 in 10.0 mi North 17.3 mph 21.9 mph 0.08 in Rain , Thunderstorm Rain
7:55 AM 42.8 °F 37.0 °F 41.0 °F 93% 29.97 in 1.8 mi NE 10.4 mph - 0.22 in Rain , Thunderstorm Heavy Thunderstorms and Rain
8:15 AM 41.0 °F 33.9 °F 41.0 °F 100% 29.97 in 7.0 mi NNE 12.7 mph - 0.01 in Rain , Thunderstorm Light Thunderstorms and Rain
8:35 AM 42.8 °F 35.4 °F 41.0 °F 93% 29.93 in 5.0 mi ENE 15.0 mph 24.2 mph 0.02 in Thunderstorm Drizzle
8:55 AM 42.8 °F 34.8 °F 41.0 °F 93% 29.98 in 7.0 mi NW 17.3 mph 25.3 mph 0.03 in Rain , Thunderstorm Light Thunderstorms and Rain
9:15 AM 42.8 °F 34.5 °F 41.0 °F 93% 29.90 in 4.0 mi ENE 18.4 mph 25.3 mph 0.06 in Rain Rain
9:35 AM 42.8 °F 36.6 °F 41.0 °F 93% 29.93 in 7.0 mi NE 11.5 mph 21.9 mph 0.08 in Rain Light Rain
9:55 AM 42.8 °F 35.4 °F 41.0 °F 93% 29.93 in 10.0 mi ENE 15.0 mph 23.0 mph 0.08 in   Overcast
10:15 AM 42.8 °F 36.2 °F 41.0 °F 93% 29.95 in 10.0 mi East 12.7 mph 16.1 mph 0.02 in Rain Rain
10:35 AM 42.8 °F 41.1 °F 41.0 °F 93% 29.98 in 10.0 mi NE 3.5 mph - 0.02 in Rain Light Rain
10:55 AM 42.8 °F 39.3 °F 41.0 °F 93% 29.98 in 4.0 mi East 5.8 mph - 0.02 in   Light Drizzle
11:15 AM 42.8 °F 37.0 °F 41.0 °F 93% 29.97 in 3.0 mi ENE 10.4 mph - N/A   Light Drizzle
11:35 AM 42.8 °F 37.5 °F 41.0 °F 93% 29.97 in 4.0 mi ENE 9.2 mph - N/A   Overcast
11:55 AM 42.8 °F 37.0 °F 41.0 °F 93% 29.96 in 10.0 mi ENE 10.4 mph - N/A   Overcast
12:15 PM 42.8 °F 37.0 °F 42.8 °F 100% 29.95 in 4.0 mi ENE 10.4 mph - N/A   Overcast
12:35 PM 42.8 °F 36.2 °F 42.8 °F 100% 29.95 in 4.0 mi ENE 12.7 mph - N/A   Overcast
12:55 PM 42.8 °F 36.6 °F 42.8 °F 100% 29.94 in 3.0 mi ENE 11.5 mph 17.3 mph 0.01 in   Overcast
1:15 PM 42.8 °F 37.0 °F 42.8 °F 100% 29.92 in 3.0 mi ENE 10.4 mph 16.1 mph N/A   Overcast
1:35 PM 42.8 °F 36.6 °F 42.8 °F 100% 29.90 in 3.0 mi ENE 11.5 mph - N/A   Overcast
1:55 PM 42.8 °F 35.4 °F 42.8 °F 100% 29.90 in 5.0 mi ENE 15.0 mph 20.7 mph N/A   Overcast
2:15 PM 42.8 °F 37.0 °F 42.8 °F 100% 29.89 in 7.0 mi ENE 10.4 mph - N/A   Overcast
2:35 PM 42.8 °F 38.0 °F 42.8 °F 100% 29.89 in 7.0 mi NE 8.1 mph - N/A   Overcast
2:55 PM 42.8 °F 37.5 °F 42.8 °F 100% 29.88 in 5.0 mi ENE 9.2 mph - N/A   Overcast
3:15 PM 42.8 °F 38.0 °F 42.8 °F 100% 29.88 in 3.0 mi ENE 8.1 mph - N/A   Overcast
3:35 PM 42.8 °F 37.5 °F 42.8 °F 100% 29.89 in 5.0 mi ENE 9.2 mph - N/A   Overcast
3:55 PM 42.8 °F 40.1 °F 42.8 °F 100% 29.89 in 4.0 mi ENE 4.6 mph - N/A   Overcast
4:15 PM 42.8 °F 39.3 °F 42.8 °F 100% 29.89 in 4.0 mi NE 5.8 mph - N/A   Overcast
4:35 PM 42.8 °F 40.1 °F 42.8 °F 100% 29.90 in 2.5 mi NNE 4.6 mph - N/A   Light Drizzle
4:55 PM 42.8 °F 41.1 °F 42.8 °F 100% 29.90 in 2.0 mi NNE 3.5 mph - N/A   Overcast
5:15 PM 42.8 °F 40.1 °F 42.8 °F 100% 29.90 in 2.0 mi North 4.6 mph - 0.01 in   Overcast
5:35 PM 42.8 °F 40.1 °F 42.8 °F 100% 29.91 in 4.0 mi NE 4.6 mph - 0.01 in   Overcast
5:55 PM 42.8 °F 39.3 °F 42.8 °F 100% 29.92 in 4.0 mi NNW 5.8 mph - 0.01 in   Overcast
6:15 PM 42.8 °F 39.3 °F 41.0 °F 93% 29.92 in 4.0 mi North 5.8 mph - N/A   Overcast
6:35 PM 42.8 °F 39.3 °F 41.0 °F 93% 29.93 in 3.0 mi North 5.8 mph - N/A   Overcast
6:55 PM 42.8 °F 38.6 °F 41.0 °F 93% 29.94 in 3.0 mi North 6.9 mph - N/A   Overcast
7:15 PM 41.0 °F 34.3 °F 41.0 °F 100% 29.95 in 4.0 mi North 11.5 mph - N/A   Overcast
7:35 PM 41.0 °F 34.3 °F 41.0 °F 100% 29.95 in 3.0 mi North 11.5 mph - N/A   Overcast
8:15 PM 41.0 °F 34.7 °F 41.0 °F 100% 29.98 in 4.0 mi NNW 10.4 mph - N/A   Overcast
8:35 PM 41.0 °F 34.7 °F 41.0 °F 100% 29.98 in 5.0 mi North 10.4 mph 16.1 mph N/A   Overcast
8:55 PM 41.0 °F 35.2 °F 41.0 °F 100% 29.99 in 4.0 mi NNW 9.2 mph - N/A   Overcast
9:15 PM 41.0 °F 35.8 °F 41.0 °F 100% 30.00 in 2.5 mi NNW 8.1 mph - N/A Rain Light Rain
9:35 PM 41.0 °F 35.2 °F 41.0 °F 100% 30.00 in 3.0 mi NNW 9.2 mph - 0.01 in   Light Drizzle
9:55 PM 41.0 °F 33.9 °F 39.2 °F 93% 30.00 in 7.0 mi NNW 12.7 mph 20.7 mph 0.01 in   Overcast
10:15 PM 39.2 °F 31.2 °F 37.4 °F 93% 30.02 in 10.0 mi NNW 13.8 mph - N/A   Overcast
10:35 PM 37.4 °F 28.9 °F 37.4 °F 100% 30.02 in 7.0 mi NW 13.8 mph - N/A   Overcast
10:55 PM 37.4 °F 28.5 °F 37.4 °F 100% 30.02 in 7.0 mi NNW 15.0 mph 18.4 mph N/A   Light Drizzle
11:15 PM 37.4 °F 28.9 °F 35.6 °F 93% 30.03 in 7.0 mi NNW 13.8 mph 20.7 mph N/A   Overcast
11:35 PM 37.4 °F 29.3 °F 35.6 °F 93% 30.03 in 10.0 mi NNW 12.7 mph - N/A   Overcast
11:55 PM 37.4 °F 30.3 °F 35.6 °F 93% 30.04 in 10.0 mi NNW 10.4 mph - N/A   Overcast